TimeCST,TemperatureF,Dew PointF,Humidity,Sea Level PressureIn,VisibilityMPH,Wind Direction,Wind SpeedMPH,Gust SpeedMPH,PrecipitationIn,Events,Conditions,WindDirDegrees,DateUTC
12:53 AM,33.1,25.0,72,30.19,10.0,South,6.9,-,N/A,,Overcast,190,2013-01-05 06:53:00
1:53 AM,34.0,26.1,73,30.19,10.0,South,9.2,-,N/A,,Overcast,180,2013-01-05 07:53:00
2:53 AM,35.1,27.0,72,30.18,10.0,South,12.7,-,N/A,,Overcast,190,2013-01-05 08:53:00
3:53 AM,34.0,27.0,75,30.16,10.0,South,12.7,-,N/A,,Overcast,190,2013-01-05 09:53:00
4:53 AM,34.0,27.0,75,30.14,10.0,South,11.5,-,N/A,,Overcast,190,2013-01-05 10:53:00
5:53 AM,33.1,27.0,78,30.14,10.0,South,8.1,-,N/A,,Overcast,180,2013-01-05 11:53:00
6:53 AM,30.9,26.1,82,30.15,10.0,South,8.1,-,N/A,,Clear,180,2013-01-05 12:53:00
7:53 AM,34.0,28.0,79,30.16,10.0,SSW,13.8,-,N/A,,Mostly Cloudy,200,2013-01-05 13:53:00
8:53 AM,34.0,28.0,79,30.16,10.0,SSW,17.3,-,N/A,,Mostly Cloudy,200,2013-01-05 14:53:00
9:53 AM,36.0,28.9,76,30.17,10.0,SSW,13.8,-,N/A,,Scattered Clouds,200,2013-01-05 15:53:00
10:53 AM,37.9,28.9,70,30.17,10.0,SW,13.8,-,N/A,,Clear,220,2013-01-05 16:53:00
11:53 AM,39.0,28.9,67,30.15,10.0,WSW,13.8,-,N/A,,Clear,250,2013-01-05 17:53:00
12:53 PM,39.0,28.0,65,30.12,10.0,WSW,13.8,-,N/A,,Clear,240,2013-01-05 18:53:00
1:53 PM,39.0,28.0,65,30.12,10.0,West,16.1,-,N/A,,Clear,270,2013-01-05 19:53:00
2:53 PM,35.1,25.0,67,30.16,10.0,WNW,15.0,-,0.00,,Clear,290,2013-01-05 20:53:00
3:53 PM,33.1,21.0,61,30.19,10.0,WNW,15.0,-,N/A,,Clear,290,2013-01-05 21:53:00
4:53 PM,33.1,21.0,61,30.20,10.0,WSW,4.6,-,N/A,,Clear,250,2013-01-05 22:53:00
5:53 PM,27.0,19.9,75,30.22,10.0,SSW,3.5,-,N/A,,Clear,210,2013-01-05 23:53:00
6:53 PM,30.0,21.0,69,30.24,10.0,SW,10.4,-,N/A,,Clear,230,2013-01-06 00:53:00
7:53 PM,28.9,21.0,72,30.25,10.0,West,8.1,-,N/A,,Clear,260,2013-01-06 01:53:00
8:53 PM,34.0,25.0,70,30.26,10.0,WNW,15.0,-,N/A,,Clear,300,2013-01-06 02:53:00
9:53 PM,33.1,24.1,70,30.27,10.0,NW,16.1,-,N/A,,Clear,310,2013-01-06 03:53:00
10:53 PM,30.9,23.0,72,30.29,10.0,NW,12.7,-,N/A,,Clear,310,2013-01-06 04:53:00
11:53 PM,30.9,21.9,69,30.30,10.0,WNW,13.8,-,N/A,,Clear,300,2013-01-06 05:53:00